User: anonymous   Login
Location: ROBOsky.com Wild Flower Ridge Observatory
(43.9736°N, 79.9739°W)
Time: 01:35:01
(UTC-04:00)
Language:

Cosmos 1190 Rocket - Orbit

View from above orbital plane
View from above orbital plane
View from above satellite
View from above satellite

Ground track
Ground track

The orbit data is extracted from the following two-line orbital elements,

1 11870U 80056B   14297.09081913  .00000329  00000-0  12066-3 0  8452
2 11870 074.0531 183.4233 0016250 012.7945 092.8444 14.36552470795925
Epoch (UTC): 24 October 2014 02:10:46
Eccentricity: 0.0016250
inclination: 74.0531°
perigee height: 758 km
apogee height: 781 km
right ascension of ascending node: 183.4233°
argument of perigee: 12.7945°
revolutions per day: 14.36552470
mean anomaly at epoch: 92.8444°
orbit number at epoch: 79592

The dashed part of the orbit path shows where the satellite is in the earth's shadow,  

DLR